Theta_e
324 321 322 323 323 326 327 330 337 351 356 356 360 355 355 355 356 353 349 346 345 345 341 342 348 349 349 347 346 346 345 344 346 349 347 347 347 347 347 347 345 346 345 349
322 322 322 323 325 326 327 328 330 356 353 352 356 359 354 353 356 354 350 347 345 344 342 340 344 347 347 348 348 345 342 344 344 348 349 348 348 345 347 348 348 346 347 347
322 323 325 326 325 325 325 326 329 350 354 352 354 357 351 348 348 354 350 346 345 345 345 340 342 343 346 345 349 347 346 346 345 345 348 349 349 348 348 347 348 348 348 347
322 322 325 325 326 323 323 324 328 349 347 351 351 349 360 352 350 354 349 347 345 345 345 342 342 343 345 344 346 349 347 346 346 344 346 350 349 348 348 348 349 350 350 350
320 322 322 322 324 321 323 324 327 341 342 355 355 357 352 356 361 356 352 349 346 346 346 344 341 344 345 345 345 347 346 346 346 347 345 349 349 349 348 346 347 350 351 349
320 320 319 319 321 321 323 327 337 336 339 343 347 353 353 362 359 357 355 352 349 346 346 346 344 345 345 346 346 347 348 347 347 349 350 350 349 347 349 347 349 350 352 349
322 323 321 320 320 319 323 325 330 331 341 343 337 352 347 355 357 355 356 353 350 347 348 345 346 347 346 347 347 348 349 348 347 345 348 350 350 348 349 350 349 351 350 350
322 324 323 322 319 320 322 324 330 335 337 338 340 353 351 351 353 351 350 349 344 345 349 346 346 347 347 347 348 348 349 348 348 347 346 349 351 348 345 347 349 349 350 349
322 326 326 325 322 321 322 325 324 329 328 329 352 351 344 346 342 340 341 342 344 349 348 349 346 348 348 347 349 348 348 348 347 347 346 348 349 348 346 349 348 346 350 349
321 325 322 325 324 321 320 324 329 325 336 335 356 355 352 349 339 335 334 337 336 336 338 343 343 345 348 347 348 349 348 348 348 348 348 348 348 348 344 347 348 344 349 347
317 318 320 325 324 322 325 327 328 325 327 332 351 352 350 343 335 332 330 331 330 333 334 333 337 342 346 347 347 349 349 348 348 350 350 349 346 348 348 345 350 350 350 349
320 314 319 328 324 324 327 328 326 331 332 339 343 354 340 336 333 329 327 326 327 328 329 330 329 334 341 342 345 347 346 346 347 347 349 349 347 346 349 350 352 351 352 350
317 316 320 323 323 321 319 319 318 321 324 337 336 346 334 334 332 327 325 324 325 326 325 325 327 328 331 336 340 345 344 342 343 342 346 347 347 347 347 349 349 350 351 351
317 313 319 322 327 323 320 319 319 318 320 337 340 341 334 331 328 325 323 322 323 323 323 324 325 325 327 329 333 340 343 344 344 342 342 342 346 347 348 350 349 348 349 352
315 319 320 321 320 321 320 320 321 320 322 335 340 339 332 328 326 323 322 323 322 321 321 322 324 324 323 326 328 331 338 341 340 341 342 340 343 342 342 346 346 347 351 351
312 321 321 321 325 322 320 320 326 333 339 340 337 335 327 324 323 322 321 322 323 322 321 322 322 323 323 322 324 327 330 333 336 339 341 341 342 339 340 338 340 339 339 350
319 317 318 322 323 323 321 320 321 333 338 338 340 333 326 325 325 324 321 321 321 321 321 321 321 321 322 323 323 321 320 320 326 330 334 337 339 339 339 341 341 338 337 346
314 317 316 320 320 324 321 319 319 329 333 331 329 328 326 325 323 320 320 319 319 318 319 319 320 320 321 322 324 325 325 326 325 326 325 326 329 334 337 333 335 336 339 341
310 313 315 320 320 320 322 319 319 320 329 331 329 327 326 322 320 318 317 316 315 314 315 317 317 316 317 319 322 324 322 321 321 321 322 322 321 321 323 326 326 324 329 331
311 310 314 319 325 323 320 318 318 320 327 326 326 324 321 320 321 319 315 315 314 314 315 314 315 315 315 316 318 317 315 315 315 316 316 317 317 318 319 319 318 319 322 325
318 312 315 320 322 324 321 318 317 322 322 321 323 321 320 318 316 313 314 313 313 314 314 314 314 314 314 314 314 313 313 313 313 313 313 313 313 314 314 314 313 314 316 318
320 316 313 316 318 320 320 320 320 318 316 317 318 316 315 315 315 314 312 311 312 313 313 313 313 313 312 312 312 311 311 310 310 310 310 310 310 311 312 313 314 316 317 319
315 317 317 318 318 317 318 320 317 315 315 316 317 316 315 314 313 312 311 310 310 311 311 312 312 312 312 310 310 309 308 308 308 307 306 307 308 308 308 309 310 311 311 313
318 314 314 316 321 319 318 318 316 315 315 313 313 312 312 312 311 311 308 310 310 310 310 310 310 310 309 309 308 307 306 306 305 305 305 304 304 304 304 305 307 308 309 310
315 316 314 314 315 316 319 317 314 313 314 313 311 311 312 310 310 309 309 309 309 310 309 310 310 309 308 307 307 306 305 305 303 303 303 303 302 303 303 304 305 305 306 307
315 316 316 317 316 314 314 316 314 312 313 312 311 311 311 310 310 310 309 309 310 309 310 309 308 308 307 307 306 305 305 304 302 302 303 302 302 302 302 302 302 302 303 303
Wind_Speed
3 3 6 7 6 6 3 4 4 8 16 8 7 15 19 14 6 15 13 12 11 14 20 32 35 34 33 34 34 32 27 21 24 18 17 15 14 12 10 14 10 9 10 9
5 5 7 6 7 7 6 3 1 6 10 7 10 9 6 8 12 15 16 13 13 11 13 23 29 31 35 36 33 31 29 25 24 20 15 14 12 10 10 8 7 10 10 11
6 6 7 6 8 8 7 4 4 6 9 7 13 6 9 8 4 10 11 13 14 18 16 15 24 28 31 33 32 32 32 28 23 22 14 11 11 10 11 10 9 11 9 11
6 6 6 9 10 7 8 8 8 14 5 6 2 4 7 7 10 12 11 12 11 15 10 15 23 23 32 31 30 30 32 28 23 19 18 9 16 15 14 13 11 10 10 13
8 5 7 9 16 8 11 6 8 10 7 7 2 4 6 9 12 9 7 7 4 11 10 11 21 27 31 33 31 30 31 27 22 17 16 15 17 14 9 14 14 11 11 12
8 7 8 10 11 12 10 2 3 4 4 3 7 5 3 13 16 15 5 8 11 9 13 13 20 26 28 32 32 32 32 29 24 21 15 13 15 14 9 12 17 14 12 13
5 5 7 5 7 5 4 6 1 1 1 5 9 8 7 11 17 18 16 17 11 9 11 13 16 23 25 28 30 33 32 30 26 22 19 13 15 14 13 12 15 17 15 14
2 6 6 3 9 7 5 8 5 5 4 5 8 4 4 6 7 7 4 7 3 1 6 9 16 21 25 27 32 31 33 31 28 23 22 18 15 12 11 16 17 18 15 14
1 4 4 4 5 8 3 3 7 2 1 2 5 4 7 11 12 13 12 11 8 8 7 9 11 11 16 21 27 35 35 33 29 26 24 22 18 16 14 13 16 16 15 16
3 3 1 7 1 2 7 4 2 3 2 3 3 3 2 2 5 8 10 9 8 10 11 8 11 13 10 15 15 18 28 35 32 28 26 26 22 20 18 14 14 15 18 18
4 4 8 3 1 8 4 2 5 4 4 5 5 1 4 6 5 6 5 6 7 8 7 7 7 9 16 12 13 13 11 20 21 23 23 23 26 25 23 20 16 16 18 17
1 3 2 4 6 4 5 2 5 5 4 2 4 2 4 10 7 5 4 6 7 6 6 7 9 7 17 14 18 18 13 13 10 10 16 21 23 23 24 25 21 16 17 18
4 3 3 9 6 9 6 5 4 2 2 5 6 4 5 10 9 6 6 5 5 5 6 7 10 9 13 13 18 22 14 12 12 9 5 7 18 22 23 24 24 22 20 21
3 4 5 4 3 1 5 11 6 5 3 3 4 10 8 11 11 8 8 9 6 6 6 6 7 11 13 11 12 16 15 7 6 9 9 12 3 11 15 20 21 21 22 22
4 2 2 6 7 5 3 8 14 2 5 4 11 14 16 13 13 9 9 11 10 8 9 8 6 10 11 13 11 11 11 9 9 10 11 6 7 4 3 5 3 8 17 23
6 2 3 6 6 9 7 14 12 6 9 11 14 9 12 11 12 9 9 10 10 9 9 7 9 9 10 10 14 15 12 10 10 10 9 8 2 3 8 10 12 13 14 15
4 3 3 1 4 3 5 7 8 5 6 16 8 9 16 15 14 14 13 12 11 9 9 7 7 12 12 11 17 21 18 18 14 9 7 7 4 1 3 10 8 10 17 16
3 3 2 1 5 4 4 6 7 8 5 9 17 20 17 16 12 7 9 11 10 7 7 7 10 14 15 13 9 13 18 19 18 17 16 17 10 6 4 7 9 7 8 11
4 4 3 3 1 5 2 5 2 5 5 11 15 15 13 13 14 6 10 11 10 7 14 18 22 22 22 21 20 23 21 20 19 18 17 16 14 12 12 9 10 14 12 12
6 6 5 2 2 3 3 2 5 10 1 2 15 18 22 19 9 6 9 14 15 22 24 23 21 21 20 19 19 20 19 18 17 14 13 13 12 11 11 12 11 11 13 13
4 3 3 1 2 4 4 7 3 6 6 5 12 20 19 6 6 8 12 11 20 24 25 23 20 20 17 14 14 19 16 16 12 11 10 10 10 11 11 12 12 14 14 15
2 3 1 2 2 4 4 5 4 4 4 5 6 6 11 15 17 15 13 10 18 22 21 20 20 17 13 11 11 14 15 11 9 9 10 11 12 12 12 13 14 13 15 16
1 5 4 5 5 6 4 5 4 5 5 3 10 8 15 16 14 12 11 12 17 24 22 20 19 17 16 13 12 15 11 10 11 11 12 12 11 12 13 14 16 18 17 19
2 3 3 4 3 3 3 3 4 4 7 8 8 9 11 11 11 11 8 13 18 23 21 18 16 15 12 12 12 10 9 10 10 11 12 13 15 15 15 14 14 15 17 18
5 3 4 2 5 1 3 4 7 5 6 7 7 8 9 13 10 11 11 16 21 23 19 17 15 12 11 9 9 8 9 11 12 12 11 13 15 16 16 16 16 15 13 14
3 5 4 5 6 5 5 2 3 9 8 8 8 5 10 12 10 19 15 23 26 24 23 19 15 14 11 8 6 6 8 11 13 13 13 14 15 16 16 20 24 19 15 18
Wind_Direction
228 105 206 218 205 232 287 314 312 126 140 115 163 166 192 201 190 197 197 185 175 147 160 155 161 163 168 170 170 168 167 164 165 158 166 176 182 176 178 196 186 177 189 199
15 212 226 222 258 261 273 287 13 73 148 96 160 172 240 201 210 212 199 182 163 136 152 150 154 166 166 169 171 169 168 168 175 178 180 194 200 201 188 190 184 183 205 195
168 232 212 219 264 263 265 212 208 145 97 94 145 158 194 227 208 210 219 178 168 156 152 160 160 164 167 162 167 173 173 174 177 186 186 196 192 193 203 204 200 196 189 189
211 239 220 230 250 222 253 216 228 150 138 174 203 230 221 166 200 186 198 170 165 169 151 161 165 167 171 173 170 175 177 177 180 186 192 207 197 198 210 218 214 199 196 182
238 224 207 223 233 190 239 233 204 186 158 107 266 82 297 138 208 183 173 156 134 180 161 162 170 173 176 178 179 174 178 180 187 185 193 210 192 201 202 217 210 204 200 195
236 240 172 216 238 231 234 74 52 68 118 125 203 139 258 188 189 170 152 150 172 176 177 175 174 177 175 183 183 181 183 186 191 190 189 209 217 201 203 194 205 202 206 209
284 258 238 190 239 328 128 73 350 44 137 203 172 184 225 206 173 175 174 202 184 178 160 170 164 174 176 178 181 188 190 192 194 201 197 205 206 195 192 195 193 200 204 205
263 308 180 209 184 196 165 149 155 182 182 224 140 190 310 42 113 103 59 57 359 315 183 168 170 174 179 178 184 183 194 198 196 203 203 208 202 201 206 203 205 211 207 218
264 267 340 339 216 131 269 143 184 79 18 41 141 142 43 66 65 71 69 67 41 47 31 102 91 122 175 188 186 187 197 203 203 203 204 209 215 218 223 220 207 202 218 217
222 270 271 296 279 209 141 188 68 6 186 210 21 69 149 111 69 69 65 54 34 34 35 47 72 95 113 172 184 191 200 205 208 205 205 213 215 222 223 222 223 223 224 220
44 83 303 359 101 202 26 56 58 119 130 165 142 3 279 114 90 96 81 76 49 36 34 35 31 97 106 144 160 153 211 198 211 213 215 221 222 221 227 229 227 235 226 228
42 114 291 258 280 251 149 127 134 134 246 99 119 133 83 112 112 96 78 76 68 50 39 48 51 65 103 100 121 150 169 151 167 208 217 221 227 233 228 230 227 236 225 227
324 5 21 349 15 11 33 358 86 146 82 182 138 179 120 125 125 125 97 72 76 83 48 55 54 52 66 87 115 114 118 107 94 58 54 239 230 232 241 241 231 226 229 231
92 54 125 164 237 284 338 347 22 112 91 153 152 140 172 145 139 143 119 111 100 80 71 54 58 65 72 90 110 134 147 160 208 276 331 5 306 233 236 239 239 236 240 235
85 50 359 69 353 7 325 350 348 330 181 151 182 156 167 149 146 142 140 136 117 101 94 79 61 74 79 90 104 120 125 141 125 181 229 274 321 329 309 247 254 263 233 248
357 0 21 41 308 1 10 5 1 12 108 70 107 78 137 141 134 136 134 130 125 123 109 100 97 86 84 92 103 98 99 121 134 129 144 190 276 312 7 343 301 317 318 242
58 81 52 53 311 157 18 333 347 346 52 140 153 167 149 146 147 149 140 136 126 120 107 109 119 106 103 100 104 100 100 96 99 107 117 111 119 204 339 334 334 297 301 307
87 78 84 228 358 128 133 290 35 64 67 100 108 139 151 151 142 127 129 138 134 129 116 107 99 87 84 73 84 96 90 83 81 74 63 55 46 32 50 351 336 334 323 330
83 100 59 108 124 291 4 45 73 22 18 135 132 138 128 120 112 82 122 116 121 119 101 95 98 87 77 71 82 96 85 77 67 58 56 54 47 41 38 31 9 350 341 321
57 71 113 111 104 200 255 315 315 95 354 357 140 141 139 140 133 167 131 120 113 101 103 96 92 84 75 73 88 83 67 62 49 35 32 32 28 21 15 8 356 344 335 332
358 13 117 111 192 280 309 322 320 111 230 149 161 154 153 143 160 142 128 118 113 114 109 103 93 84 79 75 79 70 65 54 43 33 23 18 13 9 358 349 343 340 342 342
137 113 217 85 109 263 305 5 102 217 8 112 112 125 106 120 120 128 125 123 117 116 113 110 105 97 88 83 77 66 59 45 26 20 19 17 16 17 9 3 2 359 360 355
334 174 181 158 215 232 286 110 103 123 116 67 116 119 122 126 130 132 130 131 121 121 119 115 111 98 95 86 83 81 68 38 17 15 19 20 18 11 5 7 4 357 355 359
279 162 129 68 294 180 148 83 100 110 125 138 141 138 133 137 143 140 128 126 127 128 124 118 112 105 91 90 83 74 49 24 24 25 18 9 8 3 1 6 2 357 356 354
202 123 172 255 271 39 212 183 150 120 132 129 148 150 155 145 150 142 142 140 143 138 133 131 124 118 114 104 82 52 25 17 20 21 17 12 5 3 2 0 356 352 345 340
181 184 149 221 214 161 236 283 259 161 171 163 156 136 155 156 152 146 154 152 152 149 148 145 145 147 139 123 94 47 16 10 8 8 6 3 359 0 358 350 345 344 335 330